contact:dominique.lefevre@mio.osupytheas.fr, maurice.libes@osupytheas.fr, didier.mallarino@osupytheas.fr
Project:EMSO http://www.emso-fr.org/EMSO-France
Depth: 2436.0 m
Title:EMSO Ligure Ouest : Data MII capteur MICROCAT
DateTime_Computer,Latitude,Longitude,Temperature,Conductivity,Pressure,DateTime_Instrument
DateTime_Computer,Latitude,Longitude,degC,S m-1,dbar,DateTime_Instrument
2020-12-23T00:01:57Z,42.805,6.029,13.2998,4.60016,2470.194,2020-12-23T02:02:56Z
2020-12-23T00:05:00Z,42.805,6.029,13.2996,4.60011,2470.156,2020-12-23T02:05:59Z
2020-12-23T00:08:03Z,42.805,6.029,13.2993,4.60015,2470.194,2020-12-23T02:09:03Z
2020-12-23T00:11:06Z,42.805,6.029,13.2991,4.60019,2470.171,2020-12-23T02:12:06Z
2020-12-23T00:14:09Z,42.805,6.029,13.2990,4.60003,2470.194,2020-12-23T02:15:09Z
2020-12-23T00:17:12Z,42.805,6.029,13.2999,4.60015,2470.18,2020-12-23T02:18:12Z
2020-12-23T00:20:16Z,42.805,6.029,13.2990,4.60009,2470.171,2020-12-23T02:21:15Z
2020-12-23T00:23:19Z,42.805,6.029,13.2984,4.59994,2470.171,2020-12-23T02:24:18Z
2020-12-23T00:26:22Z,42.805,6.029,13.2979,4.59996,2470.156,2020-12-23T02:27:21Z
2020-12-23T00:29:25Z,42.805,6.029,13.2988,4.59999,2470.133,2020-12-23T02:30:24Z
2020-12-23T00:32:28Z,42.805,6.029,13.2979,4.59998,2470.18,2020-12-23T02:33:28Z
2020-12-23T00:35:31Z,42.805,6.029,13.2982,4.60007,2470.194,2020-12-23T02:36:31Z
2020-12-23T00:38:34Z,42.805,6.029,13.2995,4.59994,2470.18,2020-12-23T02:39:34Z
2020-12-23T00:41:37Z,42.805,6.029,13.2985,4.60008,2470.18,2020-12-23T02:42:37Z
2020-12-23T00:44:40Z,42.805,6.029,13.2985,4.60011,2470.18,2020-12-23T02:45:40Z
2020-12-23T00:47:44Z,42.805,6.029,13.2983,4.60006,2470.217,2020-12-23T02:48:43Z
2020-12-23T00:50:47Z,42.805,6.029,13.2993,4.60019,2470.166,2020-12-23T02:51:46Z
2020-12-23T00:53:50Z,42.805,6.029,13.3015,4.60014,2470.18,2020-12-23T02:54:49Z
2020-12-23T00:56:53Z,42.805,6.029,13.2996,4.60007,2470.217,2020-12-23T02:57:53Z
2020-12-23T00:59:56Z,42.805,6.029,13.2995,4.60018,2470.166,2020-12-23T03:00:56Z
2020-12-23T01:02:59Z,42.805,6.029,13.2983,4.59999,2470.18,2020-12-23T03:03:59Z
2020-12-23T01:06:02Z,42.805,6.029,13.2983,4.60007,2470.194,2020-12-23T03:07:02Z
2020-12-23T01:09:05Z,42.805,6.029,13.2998,4.60011,2470.194,2020-12-23T03:10:05Z
2020-12-23T01:12:09Z,42.805,6.029,13.2986,4.60006,2470.18,2020-12-23T03:13:08Z
2020-12-23T01:15:12Z,42.805,6.029,13.3006,4.60000,2470.18,2020-12-23T03:16:11Z
2020-12-23T01:18:15Z,42.805,6.029,13.2986,4.60011,2470.18,2020-12-23T03:19:14Z
2020-12-23T01:21:18Z,42.805,6.029,13.3006,4.60007,2470.203,2020-12-23T03:22:17Z
2020-12-23T01:24:21Z,42.805,6.029,13.2989,4.60002,2470.18,2020-12-23T03:25:21Z
2020-12-23T01:27:24Z,42.805,6.029,13.2995,4.60011,2470.203,2020-12-23T03:28:24Z
2020-12-23T01:30:27Z,42.805,6.029,13.2998,4.60001,2470.171,2020-12-23T03:31:27Z
2020-12-23T01:33:30Z,42.805,6.029,13.2994,4.59999,2470.217,2020-12-23T03:34:30Z
2020-12-23T01:36:34Z,42.805,6.029,13.2989,4.60002,2470.203,2020-12-23T03:37:33Z
2020-12-23T01:39:37Z,42.805,6.029,13.2996,4.60007,2470.194,2020-12-23T03:40:36Z
2020-12-23T01:42:40Z,42.805,6.029,13.3007,4.60003,2470.18,2020-12-23T03:43:39Z
2020-12-23T01:45:43Z,42.805,6.029,13.3013,4.60016,2470.194,2020-12-23T03:46:42Z
2020-12-23T01:48:46Z,42.805,6.029,13.2983,4.60009,2470.203,2020-12-23T03:49:46Z
2020-12-23T01:51:49Z,42.805,6.029,13.2993,4.60009,2470.18,2020-12-23T03:52:49Z
2020-12-23T01:54:52Z,42.805,6.029,13.2983,4.60002,2470.18,2020-12-23T03:55:52Z
2020-12-23T01:57:55Z,42.805,6.029,13.2986,4.60003,2470.217,2020-12-23T03:58:55Z
2020-12-23T02:00:59Z,42.805,6.029,13.2982,4.59998,2470.194,2020-12-23T04:01:58Z
2020-12-23T02:04:02Z,42.805,6.029,13.2982,4.59997,2470.171,2020-12-23T04:05:01Z
2020-12-23T02:07:05Z,42.805,6.029,13.2982,4.60001,2470.24,2020-12-23T04:08:04Z
2020-12-23T02:10:08Z,42.805,6.029,13.2979,4.59994,2470.194,2020-12-23T04:11:07Z
2020-12-23T02:13:11Z,42.805,6.029,13.2983,4.59991,2470.194,2020-12-23T04:14:11Z
2020-12-23T02:16:14Z,42.805,6.029,13.2982,4.59995,2470.18,2020-12-23T04:17:14Z
2020-12-23T02:19:17Z,42.805,6.029,13.2997,4.59999,2470.203,2020-12-23T04:20:17Z
2020-12-23T02:22:20Z,42.805,6.029,13.2987,4.60009,2470.194,2020-12-23T04:23:20Z
2020-12-23T02:25:23Z,42.805,6.029,13.2979,4.59995,2470.217,2020-12-23T04:26:23Z
2020-12-23T02:28:27Z,42.805,6.029,13.2979,4.59999,2470.203,2020-12-23T04:29:26Z
2020-12-23T02:31:30Z,42.805,6.029,13.2982,4.59997,2470.18,2020-12-23T04:32:29Z
2020-12-23T02:34:33Z,42.805,6.029,13.2982,4.59990,2470.203,2020-12-23T04:35:32Z
2020-12-23T02:37:36Z,42.805,6.029,13.2983,4.59991,2470.18,2020-12-23T04:38:36Z
2020-12-23T02:40:39Z,42.805,6.029,13.2982,4.59999,2470.18,2020-12-23T04:41:39Z
2020-12-23T02:43:42Z,42.805,6.029,13.2982,4.59997,2470.18,2020-12-23T04:44:42Z
2020-12-23T02:46:45Z,42.805,6.029,13.2984,4.60021,2470.194,2020-12-23T04:47:45Z
2020-12-23T02:49:48Z,42.805,6.029,13.2982,4.59996,2470.18,2020-12-23T04:50:48Z
2020-12-23T02:52:52Z,42.805,6.029,13.2979,4.59994,2470.18,2020-12-23T04:53:51Z
2020-12-23T02:55:55Z,42.805,6.029,13.2979,4.59990,2470.18,2020-12-23T04:56:54Z
2020-12-23T02:58:58Z,42.805,6.029,13.2982,4.59987,2470.18,2020-12-23T04:59:57Z
2020-12-23T03:02:01Z,42.805,6.029,13.2979,4.59987,2470.18,2020-12-23T05:03:01Z
2020-12-23T03:05:04Z,42.805,6.029,13.2981,4.59987,2470.194,2020-12-23T05:06:04Z
2020-12-23T03:08:07Z,42.805,6.029,13.2983,4.59987,2470.203,2020-12-23T05:09:07Z
2020-12-23T03:11:10Z,42.805,6.029,13.2983,4.59988,2470.217,2020-12-23T05:12:10Z
2020-12-23T03:14:13Z,42.805,6.029,13.2983,4.59994,2470.156,2020-12-23T05:15:13Z
2020-12-23T03:17:17Z,42.805,6.029,13.2983,4.59990,2470.194,2020-12-23T05:18:16Z
2020-12-23T03:20:20Z,42.805,6.029,13.2981,4.59992,2470.18,2020-12-23T05:21:19Z
2020-12-23T03:23:23Z,42.805,6.029,13.2979,4.59988,2470.133,2020-12-23T05:24:22Z
2020-12-23T03:26:26Z,42.805,6.029,13.2982,4.59988,2470.203,2020-12-23T05:27:25Z
2020-12-23T03:29:29Z,42.805,6.029,13.2977,4.59988,2470.203,2020-12-23T05:30:29Z
2020-12-23T03:32:32Z,42.805,6.029,13.2980,4.59993,2470.203,2020-12-23T05:33:32Z
2020-12-23T03:35:35Z,42.805,6.029,13.2985,4.59991,2470.217,2020-12-23T05:36:35Z
2020-12-23T03:38:38Z,42.805,6.029,13.2983,4.59991,2470.156,2020-12-23T05:39:38Z
2020-12-23T03:41:42Z,42.805,6.029,13.2984,4.59989,2470.217,2020-12-23T05:42:41Z
2020-12-23T03:44:45Z,42.805,6.029,13.2981,4.59990,2470.217,2020-12-23T05:45:44Z
2020-12-23T03:47:48Z,42.805,6.029,13.2982,4.59987,2470.171,2020-12-23T05:48:47Z
2020-12-23T03:50:51Z,42.805,6.029,13.2980,4.59987,2470.217,2020-12-23T05:51:50Z
2020-12-23T03:53:54Z,42.805,6.029,13.2983,4.59991,2470.24,2020-12-23T05:54:54Z
2020-12-23T03:56:57Z,42.805,6.029,13.2979,4.59991,2470.217,2020-12-23T05:57:57Z
2020-12-23T04:00:00Z,42.805,6.029,13.2983,4.59988,2470.194,2020-12-23T06:01:00Z
2020-12-23T04:03:03Z,42.805,6.029,13.2981,4.59986,2470.18,2020-12-23T06:04:03Z
2020-12-23T04:06:06Z,42.805,6.029,13.2980,4.59987,2470.203,2020-12-23T06:07:06Z
2020-12-23T04:09:10Z,42.805,6.029,13.2983,4.59986,2470.156,2020-12-23T06:10:09Z
2020-12-23T04:12:13Z,42.805,6.029,13.2980,4.59987,2470.203,2020-12-23T06:13:12Z
2020-12-23T04:15:16Z,42.805,6.029,13.2980,4.59986,2470.156,2020-12-23T06:16:15Z
2020-12-23T04:18:19Z,42.805,6.029,13.2982,4.59989,2470.24,2020-12-23T06:19:18Z
2020-12-23T04:21:22Z,42.805,6.029,13.2981,4.59991,2470.18,2020-12-23T06:22:22Z
2020-12-23T04:24:25Z,42.805,6.029,13.2982,4.59986,2470.156,2020-12-23T06:25:25Z
2020-12-23T04:27:28Z,42.805,6.029,13.2981,4.59987,2470.147,2020-12-23T06:28:28Z
2020-12-23T04:30:31Z,42.805,6.029,13.2982,4.59987,2470.203,2020-12-23T06:31:31Z
2020-12-23T04:33:35Z,42.805,6.029,13.2983,4.59988,2470.203,2020-12-23T06:34:34Z
2020-12-23T04:36:38Z,42.805,6.029,13.2982,4.59989,2470.18,2020-12-23T06:37:37Z
2020-12-23T04:39:41Z,42.805,6.029,13.2979,4.59987,2470.217,2020-12-23T06:40:40Z
2020-12-23T04:42:44Z,42.805,6.029,13.2980,4.59989,2470.156,2020-12-23T06:43:43Z
2020-12-23T04:45:47Z,42.805,6.029,13.2980,4.59990,2470.156,2020-12-23T06:46:47Z
2020-12-23T04:48:50Z,42.805,6.029,13.2982,4.59989,2470.171,2020-12-23T06:49:50Z
2020-12-23T04:51:53Z,42.805,6.029,13.2980,4.59987,2470.171,2020-12-23T06:52:53Z
2020-12-23T04:54:56Z,42.805,6.029,13.2980,4.59986,2470.171,2020-12-23T06:55:56Z
2020-12-23T04:58:00Z,42.805,6.029,13.2981,4.59988,2470.156,2020-12-23T06:58:59Z
2020-12-23T05:01:03Z,42.805,6.029,13.2979,4.59989,2470.18,2020-12-23T07:02:02Z
2020-12-23T05:04:06Z,42.805,6.029,13.2979,4.59986,2470.194,2020-12-23T07:05:05Z
2020-12-23T05:07:09Z,42.805,6.029,13.2985,4.59988,2470.156,2020-12-23T07:08:08Z
2020-12-23T05:10:12Z,42.805,6.029,13.2977,4.59987,2470.203,2020-12-23T07:11:12Z
2020-12-23T05:13:15Z,42.805,6.029,13.2982,4.59987,2470.18,2020-12-23T07:14:15Z
2020-12-23T05:16:18Z,42.805,6.029,13.2982,4.59991,2470.217,2020-12-23T07:17:18Z
2020-12-23T05:19:21Z,42.805,6.029,13.2983,4.59986,2470.156,2020-12-23T07:20:21Z
2020-12-23T05:22:25Z,42.805,6.029,13.2983,4.59986,2470.194,2020-12-23T07:23:24Z
2020-12-23T05:25:28Z,42.805,6.029,13.2979,4.59986,2470.156,2020-12-23T07:26:27Z
2020-12-23T05:28:31Z,42.805,6.029,13.2981,4.59988,2470.171,2020-12-23T07:29:30Z
2020-12-23T05:31:34Z,42.805,6.029,13.2980,4.59986,2470.194,2020-12-23T07:32:33Z
2020-12-23T05:34:37Z,42.805,6.029,13.2980,4.59986,2470.18,2020-12-23T07:35:37Z
2020-12-23T05:37:40Z,42.805,6.029,13.2981,4.59988,2470.124,2020-12-23T07:38:40Z
2020-12-23T05:40:43Z,42.805,6.029,13.2982,4.59992,2470.203,2020-12-23T07:41:43Z
2020-12-23T05:43:46Z,42.805,6.029,13.2981,4.59990,2470.156,2020-12-23T07:44:46Z
2020-12-23T05:46:50Z,42.805,6.029,13.2982,4.59992,2470.18,2020-12-23T07:47:49Z
2020-12-23T05:49:53Z,42.805,6.029,13.2983,4.59989,2470.18,2020-12-23T07:50:52Z
2020-12-23T05:52:56Z,42.805,6.029,13.2987,4.59991,2470.18,2020-12-23T07:53:55Z
2020-12-23T05:55:59Z,42.805,6.029,13.2982,4.59999,2470.203,2020-12-23T07:56:58Z
2020-12-23T05:59:02Z,42.805,6.029,13.2979,4.59998,2470.156,2020-12-23T08:00:02Z
2020-12-23T06:02:05Z,42.805,6.029,13.2981,4.59988,2470.18,2020-12-23T08:03:05Z
2020-12-23T06:05:08Z,42.805,6.029,13.2983,4.59998,2470.171,2020-12-23T08:06:08Z
2020-12-23T06:08:11Z,42.805,6.029,13.2981,4.59990,2470.156,2020-12-23T08:09:11Z
2020-12-23T06:11:15Z,42.805,6.029,13.2983,4.59994,2470.156,2020-12-23T08:12:14Z
2020-12-23T06:14:18Z,42.805,6.029,13.2980,4.59999,2470.133,2020-12-23T08:15:17Z
2020-12-23T06:17:21Z,42.805,6.029,13.3021,4.60016,2470.156,2020-12-23T08:18:20Z
2020-12-23T06:20:24Z,42.805,6.029,13.2982,4.60004,2470.11,2020-12-23T08:21:23Z
2020-12-23T06:23:27Z,42.805,6.029,13.2983,4.59995,2470.156,2020-12-23T08:24:27Z
2020-12-23T06:26:30Z,42.805,6.029,13.2976,4.59988,2470.156,2020-12-23T08:27:30Z
2020-12-23T06:29:33Z,42.805,6.029,13.2978,4.59988,2470.171,2020-12-23T08:30:33Z
2020-12-23T06:32:36Z,42.805,6.029,13.2979,4.59996,2470.171,2020-12-23T08:33:36Z
2020-12-23T06:35:40Z,42.805,6.029,13.2978,4.59996,2470.156,2020-12-23T08:36:39Z
2020-12-23T06:38:43Z,42.805,6.029,13.2979,4.59989,2470.156,2020-12-23T08:39:42Z
2020-12-23T06:41:46Z,42.805,6.029,13.2982,4.59995,2470.194,2020-12-23T08:42:45Z
2020-12-23T06:44:49Z,42.805,6.029,13.2976,4.59990,2470.18,2020-12-23T08:45:48Z
2020-12-23T06:47:52Z,42.805,6.029,13.2983,4.59998,2470.171,2020-12-23T08:48:52Z
2020-12-23T06:50:55Z,42.805,6.029,13.2976,4.59989,2470.156,2020-12-23T08:51:55Z
2020-12-23T06:53:58Z,42.805,6.029,13.2982,4.59993,2470.156,2020-12-23T08:54:58Z
2020-12-23T06:57:01Z,42.805,6.029,13.2984,4.60004,2470.156,2020-12-23T08:58:01Z
2020-12-23T07:00:05Z,42.805,6.029,13.2976,4.59986,2470.171,2020-12-23T09:01:04Z
2020-12-23T07:03:08Z,42.805,6.029,13.2983,4.59987,2470.18,2020-12-23T09:04:07Z
2020-12-23T07:06:11Z,42.805,6.029,13.2976,4.59985,2470.133,2020-12-23T09:07:10Z
2020-12-23T07:09:14Z,42.805,6.029,13.2979,4.59986,2470.194,2020-12-23T09:10:13Z
2020-12-23T07:12:17Z,42.805,6.029,13.2983,4.59988,2470.18,2020-12-23T09:13:17Z
2020-12-23T07:15:20Z,42.805,6.029,13.2981,4.59986,2470.156,2020-12-23T09:16:20Z
2020-12-23T07:18:23Z,42.805,6.029,13.2979,4.59986,2470.147,2020-12-23T09:19:23Z
2020-12-23T07:21:26Z,42.805,6.029,13.2980,4.59985,2470.11,2020-12-23T09:22:26Z
2020-12-23T07:24:29Z,42.805,6.029,13.2979,4.59985,2470.147,2020-12-23T09:25:29Z
2020-12-23T07:27:33Z,42.805,6.029,13.2980,4.59985,2470.133,2020-12-23T09:28:32Z
2020-12-23T07:30:36Z,42.805,6.029,13.2976,4.59985,2470.156,2020-12-23T09:31:35Z
2020-12-23T07:33:39Z,42.805,6.029,13.2978,4.59986,2470.11,2020-12-23T09:34:38Z
2020-12-23T07:36:42Z,42.805,6.029,13.2977,4.59986,2470.156,2020-12-23T09:37:42Z
2020-12-23T07:39:45Z,42.805,6.029,13.2978,4.59985,2470.133,2020-12-23T09:40:45Z
2020-12-23T07:42:48Z,42.805,6.029,13.2983,4.59986,2470.147,2020-12-23T09:43:48Z
2020-12-23T07:45:51Z,42.805,6.029,13.2983,4.59986,2470.171,2020-12-23T09:46:51Z
2020-12-23T07:48:54Z,42.805,6.029,13.2980,4.59986,2470.156,2020-12-23T09:49:54Z
2020-12-23T07:51:58Z,42.805,6.029,13.2979,4.59984,2470.133,2020-12-23T09:52:57Z
2020-12-23T07:55:01Z,42.805,6.029,13.2979,4.59985,2470.18,2020-12-23T09:56:00Z
2020-12-23T07:58:04Z,42.805,6.029,13.2980,4.59984,2470.147,2020-12-23T09:59:03Z
2020-12-23T08:01:07Z,42.805,6.029,13.2982,4.59985,2470.156,2020-12-23T10:02:07Z
2020-12-23T08:04:10Z,42.805,6.029,13.2982,4.59984,2470.171,2020-12-23T10:05:10Z
2020-12-23T08:07:13Z,42.805,6.029,13.2980,4.59985,2470.133,2020-12-23T10:08:13Z
2020-12-23T08:10:16Z,42.805,6.029,13.2982,4.59986,2470.171,2020-12-23T10:11:16Z
2020-12-23T08:13:19Z,42.805,6.029,13.2983,4.59985,2470.171,2020-12-23T10:14:19Z
2020-12-23T08:16:23Z,42.805,6.029,13.2980,4.59986,2470.156,2020-12-23T10:17:22Z
2020-12-23T08:19:26Z,42.805,6.029,13.2979,4.59985,2470.133,2020-12-23T10:20:25Z
2020-12-23T08:22:29Z,42.805,6.029,13.2979,4.59984,2470.133,2020-12-23T10:23:28Z
2020-12-23T08:25:32Z,42.805,6.029,13.2982,4.59984,2470.156,2020-12-23T10:26:31Z
2020-12-23T08:28:35Z,42.805,6.029,13.2981,4.59985,2470.18,2020-12-23T10:29:35Z
2020-12-23T08:31:38Z,42.805,6.029,13.2983,4.59985,2470.171,2020-12-23T10:32:38Z
2020-12-23T08:34:41Z,42.805,6.029,13.2979,4.59985,2470.171,2020-12-23T10:35:41Z
2020-12-23T08:37:44Z,42.805,6.029,13.2979,4.59987,2470.147,2020-12-23T10:38:44Z
2020-12-23T08:40:48Z,42.805,6.029,13.2979,4.59986,2470.156,2020-12-23T10:41:47Z
2020-12-23T08:43:51Z,42.805,6.029,13.2983,4.59985,2470.156,2020-12-23T10:44:50Z
2020-12-23T08:46:54Z,42.805,6.029,13.2983,4.59984,2470.156,2020-12-23T10:47:53Z
2020-12-23T08:49:57Z,42.805,6.029,13.2980,4.59985,2470.156,2020-12-23T10:50:57Z
2020-12-23T08:53:00Z,42.805,6.029,13.2979,4.59985,2470.171,2020-12-23T10:54:00Z
2020-12-23T08:56:03Z,42.805,6.029,13.2979,4.59986,2470.18,2020-12-23T10:57:03Z
2020-12-23T08:59:06Z,42.805,6.029,13.2980,4.59986,2470.194,2020-12-23T11:00:06Z
2020-12-23T09:02:09Z,42.805,6.029,13.2980,4.59985,2470.171,2020-12-23T11:03:09Z
2020-12-23T09:05:13Z,42.805,6.029,13.2984,4.59985,2470.18,2020-12-23T11:06:12Z
2020-12-23T09:08:16Z,42.805,6.029,13.2983,4.59986,2470.156,2020-12-23T11:09:15Z
2020-12-23T09:11:19Z,42.805,6.029,13.2979,4.59986,2470.194,2020-12-23T11:12:18Z
2020-12-23T09:14:22Z,42.805,6.029,13.2979,4.59986,2470.24,2020-12-23T11:15:22Z
2020-12-23T09:17:25Z,42.805,6.029,13.2981,4.59985,2470.18,2020-12-23T11:18:25Z
2020-12-23T09:20:28Z,42.805,6.029,13.2976,4.59986,2470.194,2020-12-23T11:21:28Z
2020-12-23T09:23:31Z,42.805,6.029,13.2981,4.59986,2470.18,2020-12-23T11:24:31Z
2020-12-23T09:26:35Z,42.805,6.029,13.2979,4.59988,2470.171,2020-12-23T11:27:34Z
2020-12-23T09:29:38Z,42.805,6.029,13.2983,4.59988,2470.171,2020-12-23T11:30:37Z
2020-12-23T09:32:41Z,42.805,6.029,13.2980,4.59986,2470.217,2020-12-23T11:33:40Z
2020-12-23T09:35:44Z,42.805,6.029,13.2982,4.59986,2470.18,2020-12-23T11:36:43Z
2020-12-23T09:38:47Z,42.805,6.029,13.2979,4.59987,2470.203,2020-12-23T11:39:47Z
2020-12-23T09:41:50Z,42.805,6.029,13.2983,4.59987,2470.156,2020-12-23T11:42:50Z
2020-12-23T09:44:53Z,42.805,6.029,13.2983,4.59988,2470.18,2020-12-23T11:45:53Z
2020-12-23T09:47:56Z,42.805,6.029,13.2982,4.59986,2470.18,2020-12-23T11:48:56Z
2020-12-23T09:51:00Z,42.805,6.029,13.2981,4.59987,2470.171,2020-12-23T11:51:59Z
2020-12-23T09:54:03Z,42.805,6.029,13.2980,4.59987,2470.217,2020-12-23T11:55:02Z
2020-12-23T09:57:06Z,42.805,6.029,13.2983,4.59986,2470.203,2020-12-23T11:58:05Z
2020-12-23T10:00:09Z,42.805,6.029,13.2982,4.59986,2470.217,2020-12-23T12:01:08Z
2020-12-23T10:03:12Z,42.805,6.029,13.2982,4.59985,2470.194,2020-12-23T12:04:12Z
2020-12-23T10:06:15Z,42.805,6.029,13.2979,4.59985,2470.18,2020-12-23T12:07:15Z
2020-12-23T10:09:18Z,42.805,6.029,13.2980,4.59986,2470.18,2020-12-23T12:10:18Z
2020-12-23T10:12:21Z,42.805,6.029,13.2979,4.59988,2470.189,2020-12-23T12:13:21Z
2020-12-23T10:15:25Z,42.805,6.029,13.2981,4.59988,2470.18,2020-12-23T12:16:24Z
2020-12-23T10:18:28Z,42.805,6.029,13.2980,4.59986,2470.217,2020-12-23T12:19:27Z
2020-12-23T10:21:31Z,42.805,6.029,13.2982,4.59988,2470.203,2020-12-23T12:22:30Z
2020-12-23T10:24:34Z,42.805,6.029,13.2986,4.59987,2470.171,2020-12-23T12:25:33Z
2020-12-23T10:27:37Z,42.805,6.029,13.2979,4.59986,2470.217,2020-12-23T12:28:37Z
2020-12-23T10:30:40Z,42.805,6.029,13.2982,4.59988,2470.203,2020-12-23T12:31:40Z
2020-12-23T10:33:43Z,42.805,6.029,13.2982,4.59988,2470.24,2020-12-23T12:34:43Z
2020-12-23T10:36:46Z,42.805,6.029,13.2982,4.59992,2470.217,2020-12-23T12:37:46Z
2020-12-23T10:39:50Z,42.805,6.029,13.2982,4.59994,2470.217,2020-12-23T12:40:49Z
2020-12-23T10:42:53Z,42.805,6.029,13.2983,4.59986,2470.217,2020-12-23T12:43:52Z
2020-12-23T10:45:56Z,42.805,6.029,13.2979,4.59988,2470.217,2020-12-23T12:46:55Z
2020-12-23T10:48:59Z,42.805,6.029,13.2982,4.59990,2470.217,2020-12-23T12:49:58Z
2020-12-23T10:52:02Z,42.805,6.029,13.2980,4.59987,2470.203,2020-12-23T12:53:02Z
2020-12-23T10:55:05Z,42.805,6.029,13.2979,4.59987,2470.203,2020-12-23T12:56:05Z
2020-12-23T10:58:08Z,42.805,6.029,13.2979,4.59986,2470.217,2020-12-23T12:59:08Z
2020-12-23T11:01:11Z,42.805,6.029,13.2981,4.59990,2470.18,2020-12-23T13:02:11Z
2020-12-23T11:04:15Z,42.805,6.029,13.2980,4.59986,2470.203,2020-12-23T13:05:14Z
2020-12-23T11:07:18Z,42.805,6.029,13.2982,4.59986,2470.217,2020-12-23T13:08:17Z
2020-12-23T11:10:21Z,42.805,6.029,13.2982,4.59986,2470.18,2020-12-23T13:11:20Z
2020-12-23T11:13:24Z,42.805,6.029,13.2981,4.59987,2470.24,2020-12-23T13:14:23Z
2020-12-23T11:16:27Z,42.805,6.029,13.2981,4.59986,2470.203,2020-12-23T13:17:27Z
2020-12-23T11:19:30Z,42.805,6.029,13.2984,4.59987,2470.217,2020-12-23T13:20:30Z
2020-12-23T11:22:33Z,42.805,6.029,13.2981,4.59986,2470.217,2020-12-23T13:23:33Z
2020-12-23T11:25:36Z,42.805,6.029,13.2981,4.59986,2470.227,2020-12-23T13:26:36Z
2020-12-23T11:28:40Z,42.805,6.029,13.2975,4.59988,2470.227,2020-12-23T13:29:39Z
2020-12-23T11:31:43Z,42.805,6.029,13.2983,4.59986,2470.227,2020-12-23T13:32:42Z
2020-12-23T11:34:46Z,42.805,6.029,13.2983,4.59987,2470.18,2020-12-23T13:35:45Z
2020-12-23T11:37:49Z,42.805,6.029,13.2974,4.59986,2470.217,2020-12-23T13:38:49Z
2020-12-23T11:40:52Z,42.805,6.029,13.2979,4.59986,2470.227,2020-12-23T13:41:52Z
2020-12-23T11:43:55Z,42.805,6.029,13.2979,4.59987,2470.217,2020-12-23T13:44:55Z
2020-12-23T11:46:58Z,42.805,6.029,13.2985,4.59988,2470.24,2020-12-23T13:47:58Z
2020-12-23T11:50:01Z,42.805,6.029,13.2982,4.59989,2470.25,2020-12-23T13:51:01Z
2020-12-23T11:53:05Z,42.805,6.029,13.2981,4.59991,2470.24,2020-12-23T13:54:04Z
2020-12-23T11:56:08Z,42.805,6.029,13.2982,4.59991,2470.24,2020-12-23T13:57:07Z
2020-12-23T11:59:11Z,42.805,6.029,13.2981,4.59988,2470.227,2020-12-23T14:00:10Z
2020-12-23T12:02:14Z,42.805,6.029,13.2977,4.59991,2470.203,2020-12-23T14:03:14Z
2020-12-23T12:05:17Z,42.805,6.029,13.2983,4.59989,2470.264,2020-12-23T14:06:17Z
2020-12-23T12:08:20Z,42.805,6.029,13.2976,4.59988,2470.227,2020-12-23T14:09:20Z
2020-12-23T12:11:23Z,42.805,6.029,13.2982,4.59990,2470.25,2020-12-23T14:12:23Z
2020-12-23T12:14:27Z,42.805,6.029,13.2979,4.59994,2470.25,2020-12-23T14:15:26Z
2020-12-23T12:17:30Z,42.805,6.029,13.2983,4.59994,2470.227,2020-12-23T14:18:29Z
2020-12-23T12:20:33Z,42.805,6.029,13.2982,4.59989,2470.287,2020-12-23T14:21:32Z
2020-12-23T12:23:36Z,42.805,6.029,13.2979,4.59993,2470.25,2020-12-23T14:24:35Z
2020-12-23T12:26:39Z,42.805,6.029,13.2985,4.59991,2470.25,2020-12-23T14:27:39Z
2020-12-23T12:29:42Z,42.805,6.029,13.2983,4.59990,2470.227,2020-12-23T14:30:42Z
2020-12-23T12:32:45Z,42.805,6.029,13.2981,4.59993,2470.25,2020-12-23T14:33:45Z
2020-12-23T12:35:48Z,42.805,6.029,13.2982,4.59988,2470.287,2020-12-23T14:36:48Z
2020-12-23T12:38:52Z,42.805,6.029,13.2981,4.59987,2470.24,2020-12-23T14:39:51Z
2020-12-23T12:41:55Z,42.805,6.029,13.2982,4.59993,2470.24,2020-12-23T14:42:54Z
2020-12-23T12:44:58Z,42.805,6.029,13.2981,4.59998,2470.25,2020-12-23T14:45:57Z
2020-12-23T12:48:01Z,42.805,6.029,13.2979,4.60003,2470.264,2020-12-23T14:49:01Z
2020-12-23T12:51:04Z,42.805,6.029,13.2986,4.59998,2470.264,2020-12-23T14:52:04Z
2020-12-23T12:54:07Z,42.805,6.029,13.2988,4.60005,2470.264,2020-12-23T14:55:07Z
2020-12-23T12:57:10Z,42.805,6.029,13.2983,4.60009,2470.24,2020-12-23T14:58:10Z
2020-12-23T13:00:13Z,42.805,6.029,13.2983,4.60011,2470.227,2020-12-23T15:01:13Z
2020-12-23T13:03:17Z,42.805,6.029,13.2991,4.60015,2470.264,2020-12-23T15:04:16Z
2020-12-23T13:06:20Z,42.805,6.029,13.2980,4.60016,2470.25,2020-12-23T15:07:19Z
2020-12-23T13:09:23Z,42.805,6.029,13.3032,4.60024,2470.287,2020-12-23T15:10:22Z
2020-12-23T13:12:26Z,42.805,6.029,13.3002,4.60014,2470.25,2020-12-23T15:13:26Z
2020-12-23T13:15:29Z,42.805,6.029,13.3001,4.60019,2470.264,2020-12-23T15:16:29Z
2020-12-23T13:18:32Z,42.805,6.029,13.3019,4.60021,2470.25,2020-12-23T15:19:32Z
2020-12-23T13:21:35Z,42.805,6.029,13.3013,4.60007,2470.227,2020-12-23T15:22:35Z
2020-12-23T13:24:38Z,42.805,6.029,13.2996,4.60022,2470.264,2020-12-23T15:25:38Z
2020-12-23T13:27:42Z,42.805,6.029,13.2992,4.60021,2470.273,2020-12-23T15:28:41Z
2020-12-23T13:30:45Z,42.805,6.029,13.2985,4.60042,2470.273,2020-12-23T15:31:44Z
2020-12-23T13:33:48Z,42.805,6.029,13.2996,4.60021,2470.25,2020-12-23T15:34:47Z
2020-12-23T13:36:51Z,42.805,6.029,13.2985,4.60015,2470.227,2020-12-23T15:37:51Z
2020-12-23T13:39:54Z,42.805,6.029,13.2985,4.60007,2470.25,2020-12-23T15:40:54Z
2020-12-23T13:42:57Z,42.805,6.029,13.2985,4.60014,2470.25,2020-12-23T15:43:57Z
2020-12-23T13:46:00Z,42.805,6.029,13.3008,4.60014,2470.25,2020-12-23T15:47:00Z
2020-12-23T13:49:03Z,42.805,6.029,13.3006,4.60011,2470.25,2020-12-23T15:50:03Z
2020-12-23T13:52:07Z,42.805,6.029,13.3018,4.60024,2470.25,2020-12-23T15:53:06Z
2020-12-23T13:55:10Z,42.805,6.029,13.3024,4.60029,2470.264,2020-12-23T15:56:09Z
2020-12-23T13:58:13Z,42.805,6.029,13.3015,4.60006,2470.25,2020-12-23T15:59:12Z
2020-12-23T14:01:16Z,42.805,6.029,13.2986,4.60027,2470.25,2020-12-23T16:02:16Z
2020-12-23T14:04:19Z,42.805,6.029,13.3006,4.60024,2470.264,2020-12-23T16:05:19Z
2020-12-23T14:07:22Z,42.805,6.029,13.3004,4.60021,2470.264,2020-12-23T16:08:22Z
2020-12-23T14:10:25Z,42.805,6.029,13.2985,4.60012,2470.264,2020-12-23T16:11:25Z
2020-12-23T14:13:28Z,42.805,6.029,13.3004,4.60021,2470.287,2020-12-23T16:14:28Z
2020-12-23T14:16:32Z,42.805,6.029,13.3012,4.60006,2470.273,2020-12-23T16:17:31Z
2020-12-23T14:19:35Z,42.805,6.029,13.3024,4.60015,2470.25,2020-12-23T16:20:34Z
2020-12-23T14:22:38Z,42.805,6.029,13.2992,4.60019,2470.25,2020-12-23T16:23:37Z
2020-12-23T14:25:41Z,42.805,6.029,13.3024,4.60026,2470.24,2020-12-23T16:26:41Z
2020-12-23T14:28:44Z,42.805,6.029,13.3007,4.60032,2470.24,2020-12-23T16:29:44Z
2020-12-23T14:31:47Z,42.805,6.029,13.3009,4.60012,2470.227,2020-12-23T16:32:47Z
2020-12-23T14:34:50Z,42.805,6.029,13.2984,4.60019,2470.273,2020-12-23T16:35:50Z
2020-12-23T14:37:53Z,42.805,6.029,13.3001,4.60010,2470.287,2020-12-23T16:38:53Z
2020-12-23T14:40:57Z,42.805,6.029,13.2983,4.60001,2470.264,2020-12-23T16:41:56Z
2020-12-23T14:44:00Z,42.805,6.029,13.2982,4.59999,2470.273,2020-12-23T16:44:59Z
2020-12-23T14:47:03Z,42.805,6.029,13.2982,4.60001,2470.24,2020-12-23T16:48:02Z
2020-12-23T14:50:06Z,42.805,6.029,13.2984,4.60011,2470.25,2020-12-23T16:51:06Z
2020-12-23T14:53:09Z,42.805,6.029,13.3000,4.60004,2470.25,2020-12-23T16:54:09Z
2020-12-23T14:56:12Z,42.805,6.029,13.2988,4.60013,2470.264,2020-12-23T16:57:12Z
2020-12-23T14:59:15Z,42.805,6.029,13.3002,4.60025,2470.25,2020-12-23T17:00:15Z
2020-12-23T15:02:19Z,42.805,6.029,13.3006,4.60025,2470.273,2020-12-23T17:03:18Z